Regional Weather Roundup
Issued by NWS Wakefield, VA

Home | Current Version | Previous Version | Text Only | Print | Product List | Glossary Off
Versions: 1 2 3 4 5 6 7 8 9 10 11 12 13 14 15 16 17 18 19 20 21 22 23 24 25 26 27 28 29 30 31 32 33 34 35 36 37 38 39 40 41 42 43 44 45 46 47 48 49 50

215
ASUS41 KAKQ 270615
RWRAKQ

REGIONAL WEATHER ROUNDUP
NATIONAL WEATHER SERVICE WAKEFIELD VA
200 AM EDT SAT AUG 27 2016

Note: "fair" indicates few or no clouds below 12,000 feet with no
significant weather and/or obstructions to visibility. * = Denotes
station may not report precipitation (e.g., rain,snow,etc.),
thunder or fog.

VAZ042-051-052>054-056-270700-
NORTHERN VIRGINIA

CITY           SKY/WX    TMP DP  RH WIND       PRES   REMARKS
WASH NATIONAL  MOCLDY    82  74  76 NE6       30.10R
DULLES         PTCLDY    79  70  74 N5        30.11S
FORT BELVOIR   MOCLDY    76  73  92 CALM      30.09S
QUANTICO       MOCLDY    80  76  87 NW3       30.09F
FREDERICKSBRG* CLEAR     78  78 100 CALM      30.08S
STAFFORD*      CLEAR     74  73  95 CALM      30.13S FOG
WARRENTON      PTCLDY    74  69  84 N3        30.10S
CULPEPER*      CLEAR     76  75  95 CALM      30.11S
MANASSAS*      MOCLDY    79  73  83 N6        30.10S
LEESBURG*      PTCLDY    77  72  83 NW3       30.12F
WINCHESTER     CLEAR     72  66  83 CALM      30.15R
FRONT ROYAL*   FAIR      72  70  94 CALM      30.14R
LURAY*         FAIR     N/A N/A N/A CALM      30.16S
$$

VAZ048-049-060>072-079>083-270700-
CENTRAL AND SOUTH CENTRAL VIRGINIA

CITY           SKY/WX    TMP DP  RH WIND       PRES   REMARKS
RICHMOND       PTCLDY    79  73  82 CALM      30.07F
CHESTERFIELD*  FAIR      77  63  61 CALM      30.09F
PETERSBURG*    PTCLDY   N/A N/A N/A CALM      30.08S HAZE
HANOVER        CLEAR     76  73  91 CALM      30.09F
TAPPAHANNOCK*  CLEAR     76  76 100 CALM      30.09S
QUINTON*       MOCLDY    75  74  97 CALM      30.07F
CHARLOTTSVILLE CLEAR     75  72  90 CALM      30.11S
GORDONSVILLE*  FAIR      73  73 100 CALM      30.10S
ORANGE*          N/A     77  77 100 CALM      30.12F
LOUISA*        CLEAR     81  79  94 N5        30.09F
BUMPASS*       FAIR      76  76 100 CALM      30.09F
FARMVILLE*     CLEAR     79  79 100 CALM      30.08F
CREWE*         FAIR      73  73 100 CALM      30.08F
FORT PICKETT*  NOT AVBL
CHASE CITY*    FAIR      75  73  95 CALM      30.09S
CLARKSVILLE*   FAIR      73  73 100 CALM      30.08F
SOUTH HILL*    CLEAR     73  72  98 CALM      30.14S
LAWRENCEVILLE* FAIR      76  75  97 CALM      30.08S
EMPORIA*       CLEAR     73  72  94 CALM      30.09S
$$

VAZ088>098-270700-
SOUTHEAST VIRGINIA

CITY           SKY/WX    TMP DP  RH WIND       PRES   REMARKS
NORFOLK        MOCLDY    80  75  84 SW7       30.07S
VIRGINIA BEACH PTCLDY    85  74  69 SW3       30.06F
NORFOLK NAVAL  MOCLDY    80  74  81 S3        30.08S
WEST POINT*    CLOUDY    76  74  91 CALM      30.08F
SALUDA*        CLOUDY    78  76  94 CALM      30.07F
NEWPORT NEWS   PTCLDY    76  74  93 CALM      30.07S
LANGLEY AFB    MOCLDY    79  75  88 SE1       30.06F
FORT EUSTIS    MOCLDY    78  74  86 CALM      30.04F
WILLIAMSBURG*  CLEAR     79  75  89 CALM      30.07F
HR EXEC AP*    FAIR      72  68  88 CALM      30.09F
FRANKLIN*      PTCLDY    76  74  93 CALM      30.07F
US460-WAKEFLD  MOCLDY    75  73  93 CALM      30.07F FOG
$$

VAZ020-022-025-037-045-270700-
WEST CENTRAL AND SOUTHWEST VIRGINIA

CITY           SKY/WX    TMP DP  RH WIND       PRES   REMARKS
STAUNTON*      CLEAR     70  69  97 CALM      30.18S
WAYNESBORO*    FAIR      71  69  95 CALM      30.18S
HOT SPRINGS VA CLEAR     73  64  75 NE6       30.30F
LYNCHBURG      CLEAR     73  73 100 CALM      30.13F
DANVILLE       CLEAR     74  73  97 S3        30.10S
SOUTH BOSTON*  FAIR      74  72  96 CALM      30.09S
MARTINSVILLE   FOG       68  67  97 CALM      30.15S VSB 1/2
ROANOKE        CLEAR     75  72  90 W3        30.16F
BLACKSBURG     CLEAR     70  69  98 CALM      30.23F FOG
DUBLIN*        CLEAR     71  70  95 CALM      30.21F
MARION*        CLEAR     67  65  96 CALM      30.26S FOG
HILLSVILLE*      N/A     68  68 100 SW3       30.24S FOG
RICHLANDS*     FAIR      71  70  96 CALM      30.24S
WISE*          CLEAR     72  63  73 CALM      30.24F
ABINGDON*      CLEAR     72  69  90 CALM      30.20F
$$

MDZ021>025-VAZ099-100-270700-
SOUTHERN MARYLAND AND THE DELMARVA PENINSULA

CITY           SKY/WX    TMP DP  RH WIND       PRES   REMARKS
PATUXENT RIVER CLEAR     75  72  90 CALM      30.08S
BAY BRIDGE APT NOT AVBL
LEONARDTOWN    NOT AVBL
DOVER          CLEAR     73  73 100 NW5       30.07S
GEORGETOWN     CLEAR     73  71  93 CALM      30.09S
EASTON         CLEAR     76  76 100 CALM      30.13S
CAMBRIDGE      NOT AVBL
SALISBURY      CLEAR     74  72  93 CALM      30.08S
OCEAN CITY     CLEAR     73  71  93 CALM      30.07F
WALLOPS ISLAND CLEAR     77  70  79 CALM      30.08S
ACCOMACK*        N/A     75  72  92 CALM      30.07F FOG
$$

NCZ012>017-030>032-270700-
NORTH CENTRAL AND EASTERN NORTH CAROLINA

CITY           SKY/WX    TMP DP  RH WIND       PRES   REMARKS
ROANOKE RAPIDS FAIR      73  73 100 CALM      30.08S
RALEIGH        PTCLDY    80  73  79 W3        30.10S
ELIZABETH CITY CLEAR     76  73  91 CALM      30.08S
AHOSKIE*       CLEAR     74  73  95 CALM      30.08S
EDENTON*       CLEAR     81  76  87 SW6       30.09S
CURRITUCK*       N/A     77  76  98 CALM      30.08F
KILL DEVIL HLS PTCLDY    79  76  91 SW5       30.07S
MANTEO         CLEAR     79  74  85 W7        30.08S
CAPE HATTERAS  PTCLDY    80  71  74 S5        30.08S
TARBORO*       FAIR      77  74  91 CALM      30.09S
GOLDSBORO      CLEAR     77  72  83 CALM      30.08F
WASHINGTON     CLEAR     75  72  90 SW3       30.08F
GREENVILLE     CLEAR     77  73  88 CALM      30.10S
NEW BERN       CLEAR     74  71  91 CALM      30.10S
WILMINGTON     CLEAR     73  71  93 CALM      30.09S
$$

VAZ048-270700-
ELSEWHERE

CITY           SKY/WX    TMP DP  RH WIND       PRES   REMARKS
HARRISBURG PA  CLEAR     74  70  87 NW3       30.10F
BALTIMORE      PTCLDY    74  70  87 CALM      30.10S
ANNAPOLIS      CLEAR     80  76  87 CALM      30.08S
ANDREWS AFB    CLEAR     75  71  87 CALM      30.09F
PHILADELPHIA   CLEAR     78  66  66 NW5       30.10S
HENDERSON NC   CLEAR     74  71  91 CALM      30.09S
GREENSBORO     CLEAR     79  73  82 CALM      30.12S
ROCKY MOUNT    CLEAR     77  75  93 S5        30.08F
$$

VAZ100-270700-
MARINE

STATION/POSITION TIME  TEMP    WIND        PRES    WAVE   SWELL
                       AIR SEA DIR/SP/G            HT/PER HT/PER
                 (UTC) (F)     (DEG/KT/KT) (MB)    (FT/S) (FT/S)
BRANDYWINE LGT   0500   81      30/ 12/ 13   N/A
CAPE MAY NJ      0500   81 77   30/  4/  6 1017.9R
LEWES DE         0500   80 76  320/  5/  6 1018.3R
OCEAN-CITY-INLET 0500   79 78  350/  2/  2 1018.7R
WACHAPREAGUE VA  0500   78 85   CALM  /  2 1018.5R
THOMAS POINT MD  0600   81 83  360/  3/  4 1020.3S
GOOSES REEF MD   0600   84 84   30/  6/  8 1019.3R   0
COVE POINT MD    0500   82        CALM     1019.2R
SOLOMONS ISLAND  0500   81 84  300/  1/  2   N/A
PINEY POINT MD   0500           70/  2/  2   N/A
POTOMAC MD       0600   85 83   50/  6/  6 1017.3F   1
CAMBRIDGE MD     0500   82 85   20/  2/  3 1018.0R
LEWISETTA VA     0500   82 85  230/  1/  2 1018.2R
RAPPAHANNOCK LGT 0500          210/  1/  1 1019.0R
STINGRAY PT      0500   84 84  230/  4/  4 1018.8R   0
YORK RVR RNG VA  0500   84     210/  2/  3 1017.9R
YORKTOWN VA      0500   81 83   CALM  /  1 1018.0R
JAMESTOWN VA     0600   81 85  220/  2/  4   N/A     0
DOMINION TERM VA 0500   83     190/  2/  3 1018.4R
KIPTOPEKE VA     0500      81     CALM       N/A
CHES BAY BRIDGE  0500   83 81  190/  5/  5 1018.2R
CAPE HENRY VA    0500   81     210/  6/  8   N/A
WILLOUBY STN VA  0500   84     340/  3/  3   N/A
CAPE HENRY BUOY  0512      79                N/A     2/12
1ST LANDING BUOY 0600   81 80  230/  4/  4 1017.9F   1/ 5
CAPE CHARLES BUO 0526      77                N/A     2/ 8
OFFSHORE WE BUOY 0521      79                N/A     2/ 7
64NM E OF VA BCH 0550   81 80  240/ 10/ 12 1017.9F   2/ 8   2/ 8
DUCK PIER NC     0500   81 76  220/ 10/ 12 1017.9S
44100 DUCK FRF   0505      78                N/A     2/ 8
44056 DUCK FRF   0511      79                N/A     2/ 7
OREGON INLET NC  0500   81 82  210/  7/  8 1018.5R
HATTERAS NC      0500   81 83  180/  1/  3 1018.3R
DIAMOND SHLS NC  0550   81 85  160/  6/  8 1018.8R   2/ 8   2/ 8
CAPE LOOKOUT NC  0600   81     150/  5/  6 1018.5S
$$




USA.gov is the U.S. government's official web portal to all federal, state and local government web resources and services.